Showing default

AETHER-10, 67381

Orbit data source: Space-Track

AETHER-10, 67381 is a payload satellite owned by Kepler Comms (CA) in SSO that was launched on Sun, 11 Jan 2026 UTC via an FALCON 9 launch vehicle from the Air Force Western Test Range (AFWTR). Payload-class satellites include a variety of spacecraft equipped with specific instruments for various scientific and technological missions. These include communications satellites like Starlink; space stations such as the ISS; scientific satellites like the Hubble; Earth observation satellites from companies like Planet Labs, Umbra, and HawkEye 360; GPS; miniature CubeSats for education and research; and military/defense satellites.

Loading next visibility...
Identifier
67381, 2026-004U
Orbit
SSO
Country
Flag of CACA
Related business
Manufacturer
Kepler Comms
Mission
Operational spacecraft
Bus & Motor
KEPLER GEN2B, Unknown motor
Mass
300 kg wet, 300 kg dry
Launch date (UTC)
2026-01-11 (3 months ago)
Launch vehicle
FALCON 9
Launch site
Air Force Western Test Range (AFWTR)
Object type
Payload
Rocket body
Debris
Shape & HBR
Unknown shape, 7.6 m
Radar Cross Section
RCS unknown

Expand to show TLE details & history
Last TLE update: 5 hours ago

TLE from 5 hours ago
0 AETHER-10
1 67381U 26004U   26095.60124895  .00001280  00000-0  14480-3 0  9995
2 67381  97.8046  95.4276 0005528  19.5958 340.5471 14.88164908 12490
Epoch: 2026-04-05T14:25Z
TLE epoch observation values (Epoch: 2026-04-05T14:25:47.909Z)
Latitude
0.00008°
Longitude
45.07364°
Altitude
603.065 km
Speed
7.56 km/s
True Right ascension
06h 21m 42s
True Declination
0° 00' 00"
Sunlit
Object was in daylight at epoch
Visualization orbit readout
Latitude
Unknown
Longitude
Unknown
Altitude
Unknown
Speed
Unknown
Apparent Right ascension
Unknown
Apparent Declination
Unknown
Sunlit
N/A
Visualization observer readout
Local Sidereal Time
01:00:39
Azimuth
Unknown
Elevation
Unknown
Doppler factor
Unknown
Orbital elements
Apogee altitude
604.553 km
Perigee altitude
596.837 km
Semi-major axis
6,978.832 km
Eccentricity
0.00055
Inclination
97.8046°
RAAN
95.4276°
Arg. of periapsis
19.5958°
True anomaly
340.52599°
Mean anomaly
340.5471°
Eccentric anomaly
340.53655°
Mean motion
3.72279 °/min
Orbital period
96.7 mins
BSTAR
0.0001448
Loading maneuver chart data...
Computing Atmospheric mass density...
Loading historical data...
Loading historical data...
Loading historical data...
Loading historical data...
Loading historical data...
Loading historical data...
Loading historical data...

Documentation

Showing up to 5 results
|